Regional Weather Roundup
Issued by NWS Sterling, VA

Home | Current Version | Previous Version | Text Only | Print | Product List | Glossary On
Versions: 1 2 3 4 5 6 7 8 9 10 11 12 13 14 15 16 17 18 19 20 21 22 23 24 25 26 27 28 29 30 31 32 33 34 35 36 37 38 39 40 41 42 43 44 45 46 47 48 49 50
000
ASUS41 KLWX 281910
RWRLWX

REGIONAL WEATHER ROUNDUP
NATIONAL WEATHER SERVICE BALTIMORE MD/WASHINGTON DC
200 PM EST FRI NOV 28 2014

Note: "FAIR" indicates few or no clouds below 12,000 feet
with no significant weather and/or obstructions to visibility.
 TC=TEMPERATURE CELSIUS

 * =Non NWS site. Station does not report precipitation (e.g. rain,
    snow, etc.), thunder, or fog.

DCZ001-MDZ009-015-VAZ040>042-051-053>054-282000-
WASHINGTON METRO

CITY           SKY/WX    TMP DP  RH WIND       PRES   REMARKS
WASHINGTON NAT PTSUNNY   40  19  43 NW12      30.29F
DULLES         PTSUNNY   34  20  56 NW12      30.27F WCI  25
ANDREWS AFB    PTSUNNY   38  18  44 NW14      30.25F
FT BELVOIR     PTSUNNY   38  19  46 NW13      30.28F
QUANTICO       MOSUNNY   40  18  41 N14       30.29F
COLLEGE PARK*  PTSUNNY   39  19  45 NW10      30.27F
LEESBURG*      MOSUNNY   36  23  60 NW10G20   30.28S WCI  28
MANASSAS*      PTSUNNY   39  19  45 NW14G23   30.27
GAITHERSBURG*  CLOUDY    37  19  48 NW6       30.28F

$$

MDZ006>007-011-014-282000-
BALTIMORE METRO

CITY           SKY/WX    TMP DP  RH WIND       PRES   REMARKS
BWI AIRPORT    MOSUNNY   38  15  39 NW14G22   30.25F
MD SCIENCE CTR   N/A     37  13  37 MISG      30.27F
MARTIN STATE   MOSUNNY   39  18  41 W16G22    30.27F
ANNAPOLIS      SUNNY     39  17  41 NW16G23   30.25F
FORT MEADE*    PTSUNNY   37  18  44 W12       30.28F

$$

MDZ012-015-019>023-282000-
MARYLAND EASTERN SHORE

CITY           SKY/WX    TMP DP  RH WIND       PRES   REMARKS
OCEAN CITY     SUNNY     42  18  37 NW13G22   30.21F
SALISBURY      PTSUNNY   41  21  44 NW16G23   30.23S
BAY BRIDGE AP*   N/A     37  18  44 NW16G22   30.25F WCI  28
CAMBRIDGE*     MOSUNNY   41  23  48 W17G23    30.25R
EASTON*        PTSUNNY   41  19  42 NW18G28   30.28F

$$

MDZ017>025-282000-
SOUTHERN MARYLAND

CITY           SKY/WX    TMP DP  RH WIND       PRES   REMARKS
PATUXENT RIVER PTSUNNY   39  19  44 NW16      30.25F
ST INIGOES     PTSUNNY   41  19  41 W12G21    30.25S
LEONARDTOWN*   CLOUDY    37  19  48 NW10G18   30.27S

$$

MDZ003>005-282000-
NORTH CENTRAL MARYLAND

CITY           SKY/WX    TMP DP  RH WIND       PRES   REMARKS
FREDERICK*     PTSUNNY   39  16  38 W15G21    30.29F
HAGERSTOWN APT SUNNY     34  17  50 NW14      30.24F WCI  25
WESTMINSTER*   PTSUNNY   34  16  47 W8        30.22F WCI  27

$$

MDZ501>502-282000-
WESTERN MARYLAND

CITY           SKY/WX    TMP DP  RH WIND       PRES   REMARKS
OAKLAND*       CLOUDY    21  18  86 NW5       30.14F HAZE
CUMBERLAND*    PTSUNNY   32  18  55 NW6       30.30F

$$

VAZ025>031-282000-
SHENANDOAH VALLEY

CITY           SKY/WX    TMP DP  RH WIND       PRES   REMARKS
WINCHESTER*    PTSUNNY   36  18  48 NW14G20   30.25F WCI  27
FRONT ROYAL*   FAIR      34  18  51 W7G16     30.26S
LURAY*         MOCLDY    36  21  55 SW8       30.26F
NEW MARKET*    FAIR      34  16  47 W3        30.26F
STAUNTON*      SUNNY     34  13  42 CALM      30.26F
WAYNESBORO*    FAIR      32  15  49 SW3       30.24F

$$

WVZ021-048>050-054>055-282000-
EASTERN WEST VIRGINIA PANHANDLE

CITY           SKY/WX    TMP DP  RH WIND       PRES   REMARKS
MARTINSBURG    SUNNY     37  14  38 W10G22    30.26F
PETERSBURG*    PTSUNNY   32  14  47 W10       30.28F WCI  24

$$

VAZ036>039-050-282000-
CENTRAL FOOTHILLS

CITY           SKY/WX    TMP DP  RH WIND       PRES   REMARKS
CHARLOTTESVILL MOSUNNY   39  16  39 NW10      30.26F
CULPEPER*      MOSUNNY   37  18  44 W6        30.28S
ORANGE*        MOSUNNY   39  19  45 SW8       30.29S
GORDONSVILLE*  FAIR      38  16  39 NW8       30.27F
WARRENTON*     PTSUNNY   42  25  51 W7        30.26F

$$

VAZ055>057-282000-
NORTH AND CENTRAL PIEDMONT

CITY           SKY/WX    TMP DP  RH WIND       PRES   REMARKS
FREDERICKSBRG* SUNNY     42  19  39 NW13G20   30.27F
STAFFORD*      PTSUNNY   40  19  41 NW6       30.31F

$$

NCZ024-NYZ072-PAZ021-071-VAZ022-071-282000-
OTHER REGIONAL OBSERVATIONS

CITY           SKY/WX    TMP DP  RH WIND       PRES   REMARKS
NEW YORK CITY  PTSUNNY   36  17  46 VRB7G18   30.18R
PHILADELPHIA   MOSUNNY   37  14  38 NW18G28   30.23R WCI  27
PITTSBURGH     PTSUNNY   27  15  61 W7        30.25F
ROANOKE        MOSUNNY   35  18  49 W13       30.29F WCI  26
RICHMOND       MOSUNNY   44  19  36 NW7G17    30.27F
RALEIGH        SUNNY     44  21  40 VRB6      30.29F

$$

ANZ530>537-282000-
MARINE OBSERVATIONS

STATION/POSITION TIME  TEMP    WIND        PRES
                       AIR SEA DIR/SP/G
                 (UTC) (F)     (DEG/KT/KT) (MB)
THOMAS PT LIGHT  1900   37 46  330/ 12/ 15 1025.4F
BALT KEY BRIDGE  1900   37     310/ 19/ 22 1024.2F
COVE POINT       1900   37     340/ 16/ 20 1024.4F
LEWISETTA        1900   39 46  320/ 15/ 19 1024.6S
SOLOMONS ISLAND  1900      48                N/A
PINEY POINT      1900          330/ 18/ 20   N/A

$$




USA.gov is the U.S. government's official web portal to all federal, state and local government web resources and services.